Year,Month,Day,Hour,Minute,Value (Times are PST for windgust in km/hr)
2008,12,16,00,00,11.30
2008,12,16,00,01,6.40
2008,12,16,00,02,4.80
2008,12,16,00,03,6.40
2008,12,16,00,04,11.30
2008,12,16,00,05,19.30
2008,12,16,00,06,9.60
2008,12,16,00,07,16.10
2008,12,16,00,08,14.50
2008,12,16,00,09,16.10
2008,12,16,00,10,16.10
2008,12,16,00,11,9.60
2008,12,16,00,12,9.60
2008,12,16,00,13,4.80
2008,12,16,00,14,6.40
2008,12,16,00,15,4.80
2008,12,16,00,16,11.30
2008,12,16,00,17,11.30
2008,12,16,00,18,4.80
2008,12,16,00,19,9.60
2008,12,16,00,20,8.10
2008,12,16,00,21,6.40
2008,12,16,00,22,4.80
2008,12,16,00,23,6.40
2008,12,16,00,24,11.30
2008,12,16,00,25,6.40
2008,12,16,00,26,4.80
2008,12,16,00,27,3.20
2008,12,16,00,28,3.20
2008,12,16,00,29,1.60
2008,12,16,00,30,1.60
2008,12,16,00,31,0.00
2008,12,16,00,32,4.80
2008,12,16,00,33,3.20
2008,12,16,00,34,1.60
2008,12,16,00,35,0.00
2008,12,16,00,36,1.60
2008,12,16,00,37,3.20
2008,12,16,00,38,4.80
2008,12,16,00,39,6.40
2008,12,16,00,40,3.20
2008,12,16,00,41,3.20
2008,12,16,00,42,3.20
2008,12,16,00,43,1.60
2008,12,16,00,44,1.60
2008,12,16,00,45,1.60
2008,12,16,00,46,0.00
2008,12,16,00,47,1.60
2008,12,16,00,48,3.20
2008,12,16,00,49,3.20
2008,12,16,00,50,1.60
2008,12,16,00,51,1.60
2008,12,16,00,52,1.60
2008,12,16,00,53,1.60
2008,12,16,00,54,1.60
2008,12,16,00,55,1.60
2008,12,16,00,56,3.20
2008,12,16,00,57,3.20
2008,12,16,00,58,0.00
2008,12,16,00,59,0.00
2008,12,16,01,00,1.60
2008,12,16,01,01,3.20
2008,12,16,01,02,4.80
2008,12,16,01,03,4.80
2008,12,16,01,04,6.40
2008,12,16,01,05,3.20
2008,12,16,01,06,3.20
2008,12,16,01,07,0.00
2008,12,16,01,08,0.00
2008,12,16,01,09,3.20
2008,12,16,01,10,1.60
2008,12,16,01,11,1.60
2008,12,16,01,12,1.60
2008,12,16,01,13,3.20
2008,12,16,01,14,3.20
2008,12,16,01,15,3.20
2008,12,16,01,16,0.00
2008,12,16,01,17,0.00
2008,12,16,01,18,0.00
2008,12,16,01,19,0.00
2008,12,16,01,20,0.00
2008,12,16,01,21,1.60
2008,12,16,01,22,3.20
2008,12,16,01,23,1.60
2008,12,16,01,24,0.00
2008,12,16,01,25,0.00
2008,12,16,01,26,0.00
2008,12,16,01,27,0.00
2008,12,16,01,28,0.00
2008,12,16,01,29,1.60
2008,12,16,01,30,3.20
2008,12,16,01,31,3.20
2008,12,16,01,32,3.20
2008,12,16,01,33,1.60
2008,12,16,01,34,1.60
2008,12,16,01,35,3.20
2008,12,16,01,36,3.20
2008,12,16,01,37,0.00
2008,12,16,01,38,0.00
2008,12,16,01,39,0.00
2008,12,16,01,40,0.00
2008,12,16,01,41,0.00
2008,12,16,01,42,0.00
2008,12,16,01,43,0.00
2008,12,16,01,44,0.00
2008,12,16,01,45,0.00
2008,12,16,01,46,0.00
2008,12,16,01,47,0.00
2008,12,16,01,48,1.60
2008,12,16,01,49,0.00
2008,12,16,01,50,1.60
2008,12,16,01,51,1.60
2008,12,16,01,52,3.20
2008,12,16,01,53,4.80
2008,12,16,01,54,4.80
2008,12,16,01,55,3.20
2008,12,16,01,56,3.20
2008,12,16,01,57,3.20
2008,12,16,01,58,3.20
2008,12,16,01,59,4.80
2008,12,16,02,00,4.80
2008,12,16,02,01,3.20
2008,12,16,02,02,3.20
2008,12,16,02,03,3.20
2008,12,16,02,04,3.20
2008,12,16,02,05,1.60
2008,12,16,02,06,1.60
2008,12,16,02,07,1.60
2008,12,16,02,08,0.00
2008,12,16,02,09,0.00
2008,12,16,02,10,1.60
2008,12,16,02,11,3.20
2008,12,16,02,12,3.20
2008,12,16,02,13,3.20
2008,12,16,02,14,6.40
2008,12,16,02,15,6.40
2008,12,16,02,16,6.40
2008,12,16,02,17,6.40
2008,12,16,02,18,4.80
2008,12,16,02,19,3.20
2008,12,16,02,20,3.20
2008,12,16,02,21,0.00
2008,12,16,02,22,0.00
2008,12,16,02,23,3.20
2008,12,16,02,24,3.20
2008,12,16,02,25,3.20
2008,12,16,02,26,3.20
2008,12,16,02,27,3.20
2008,12,16,02,28,3.20
2008,12,16,02,29,4.80
2008,12,16,02,30,3.20
2008,12,16,02,31,0.00
2008,12,16,02,32,1.60
2008,12,16,02,33,3.20
2008,12,16,02,34,1.60
2008,12,16,02,35,1.60
2008,12,16,02,36,0.00
2008,12,16,02,37,0.00
2008,12,16,02,38,0.00
2008,12,16,02,39,1.60
2008,12,16,02,40,3.20
2008,12,16,02,41,3.20
2008,12,16,02,42,1.60
2008,12,16,02,43,1.60
2008,12,16,02,44,3.20
2008,12,16,02,45,1.60
2008,12,16,02,46,0.00
2008,12,16,02,47,0.00
2008,12,16,02,48,0.00
2008,12,16,02,49,0.00
2008,12,16,02,50,1.60
2008,12,16,02,51,3.20
2008,12,16,02,52,1.60
2008,12,16,02,53,3.20
2008,12,16,02,54,1.60
2008,12,16,02,55,0.00
2008,12,16,02,56,0.00
2008,12,16,02,57,0.00
2008,12,16,02,58,0.00
2008,12,16,02,59,0.00
2008,12,16,03,00,0.00
2008,12,16,03,01,0.00
2008,12,16,03,02,1.60
2008,12,16,03,03,3.20
2008,12,16,03,04,1.60
2008,12,16,03,05,1.60
2008,12,16,03,06,1.60
2008,12,16,03,07,3.20
2008,12,16,03,08,1.60
2008,12,16,03,09,3.20
2008,12,16,03,10,1.60
2008,12,16,03,11,3.20
2008,12,16,03,12,3.20
2008,12,16,03,13,3.20
2008,12,16,03,14,3.20
2008,12,16,03,15,4.80
2008,12,16,03,16,3.20
2008,12,16,03,17,4.80
2008,12,16,03,18,4.80
2008,12,16,03,19,4.80
2008,12,16,03,20,4.80
2008,12,16,03,21,4.80
2008,12,16,03,22,4.80
2008,12,16,03,23,4.80
2008,12,16,03,24,3.20
2008,12,16,03,25,1.60
2008,12,16,03,26,1.60
2008,12,16,03,27,1.60
2008,12,16,03,28,1.60
2008,12,16,03,29,1.60
2008,12,16,03,30,0.00
2008,12,16,03,31,0.00
2008,12,16,03,32,0.00
2008,12,16,03,33,0.00
2008,12,16,03,34,1.60
2008,12,16,03,35,1.60
2008,12,16,03,36,0.00
2008,12,16,03,37,0.00
2008,12,16,03,38,0.00
2008,12,16,03,39,1.60
2008,12,16,03,40,1.60
2008,12,16,03,41,0.00
2008,12,16,03,42,1.60
2008,12,16,03,43,1.60
2008,12,16,03,44,1.60
2008,12,16,03,45,3.20
2008,12,16,03,46,3.20
2008,12,16,03,47,3.20
2008,12,16,03,48,3.20
2008,12,16,03,49,3.20
2008,12,16,03,50,1.60
2008,12,16,03,51,3.20
2008,12,16,03,52,3.20
2008,12,16,03,53,4.80
2008,12,16,03,54,3.20
2008,12,16,03,55,3.20
2008,12,16,03,56,3.20
2008,12,16,03,57,3.20
2008,12,16,03,58,3.20
2008,12,16,03,59,1.60
2008,12,16,04,00,1.60
2008,12,16,04,01,1.60
2008,12,16,04,02,1.60
2008,12,16,04,03,0.00
2008,12,16,04,04,0.00
2008,12,16,04,05,0.00
2008,12,16,04,06,1.60
2008,12,16,04,07,0.00
2008,12,16,04,08,0.00
2008,12,16,04,09,0.00
2008,12,16,04,10,0.00
2008,12,16,04,11,0.00
2008,12,16,04,12,0.00
2008,12,16,04,13,0.00
2008,12,16,04,14,0.00
2008,12,16,04,15,0.00
2008,12,16,04,16,0.00
2008,12,16,04,17,0.00
2008,12,16,04,18,0.00
2008,12,16,04,19,0.00
2008,12,16,04,20,0.00
2008,12,16,04,21,0.00
2008,12,16,04,22,0.00
2008,12,16,04,23,0.00
2008,12,16,04,24,1.60
2008,12,16,04,25,0.00
2008,12,16,04,26,0.00
2008,12,16,04,27,0.00
2008,12,16,04,28,0.00
2008,12,16,04,29,0.00
2008,12,16,04,30,0.00
2008,12,16,04,31,0.00
2008,12,16,04,32,0.00
2008,12,16,04,33,0.00
2008,12,16,04,34,0.00
2008,12,16,04,35,0.00
2008,12,16,04,36,0.00
2008,12,16,04,37,0.00
2008,12,16,04,38,0.00
2008,12,16,04,39,0.00
2008,12,16,04,40,0.00
2008,12,16,04,41,0.00
2008,12,16,04,42,0.00
2008,12,16,04,43,0.00
2008,12,16,04,44,0.00
2008,12,16,04,45,0.00
2008,12,16,04,46,0.00
2008,12,16,04,47,0.00
2008,12,16,04,48,0.00
2008,12,16,04,49,0.00
2008,12,16,04,50,0.00
2008,12,16,04,51,0.00
2008,12,16,04,52,0.00
2008,12,16,04,53,0.00
2008,12,16,04,54,0.00
2008,12,16,04,55,0.00
2008,12,16,04,56,0.00
2008,12,16,04,57,0.00
2008,12,16,04,58,0.00
2008,12,16,04,59,0.00
2008,12,16,05,00,0.00
2008,12,16,05,01,0.00
2008,12,16,05,02,0.00
2008,12,16,05,03,0.00
2008,12,16,05,04,0.00
2008,12,16,05,05,0.00
2008,12,16,05,06,0.00
2008,12,16,05,07,0.00
2008,12,16,05,08,0.00
2008,12,16,05,09,0.00
2008,12,16,05,10,0.00
2008,12,16,05,11,0.00
2008,12,16,05,12,0.00
2008,12,16,05,13,1.60
2008,12,16,05,14,1.60
2008,12,16,05,15,1.60
2008,12,16,05,16,1.60
2008,12,16,05,17,1.60
2008,12,16,05,18,3.20
2008,12,16,05,19,3.20
2008,12,16,05,20,3.20
2008,12,16,05,21,1.60
2008,12,16,05,22,1.60
2008,12,16,05,23,1.60
2008,12,16,05,24,0.00
2008,12,16,05,25,0.00
2008,12,16,05,26,0.00
2008,12,16,05,27,0.00
2008,12,16,05,28,0.00
2008,12,16,05,29,0.00
2008,12,16,05,30,0.00
2008,12,16,05,31,0.00
2008,12,16,05,32,0.00
2008,12,16,05,33,0.00
2008,12,16,05,34,0.00
2008,12,16,05,35,0.00
2008,12,16,05,36,0.00
2008,12,16,05,37,0.00
2008,12,16,05,38,0.00
2008,12,16,05,39,0.00
2008,12,16,05,40,0.00
2008,12,16,05,41,0.00
2008,12,16,05,42,0.00
2008,12,16,05,43,0.00
2008,12,16,05,44,0.00
2008,12,16,05,45,0.00
2008,12,16,05,46,0.00
2008,12,16,05,47,0.00
2008,12,16,05,48,0.00
2008,12,16,05,49,0.00
2008,12,16,05,50,0.00
2008,12,16,05,51,0.00
2008,12,16,05,52,0.00
2008,12,16,05,53,0.00
2008,12,16,05,54,0.00
2008,12,16,05,55,0.00
2008,12,16,05,56,0.00
2008,12,16,05,57,0.00
2008,12,16,05,58,0.00
2008,12,16,05,59,1.60
2008,12,16,06,00,0.00
2008,12,16,06,01,1.60
2008,12,16,06,02,0.00
2008,12,16,06,03,1.60
2008,12,16,06,04,1.60
2008,12,16,06,05,0.00
2008,12,16,06,06,0.00
2008,12,16,06,07,0.00
2008,12,16,06,08,0.00
2008,12,16,06,09,0.00
2008,12,16,06,10,0.00
2008,12,16,06,11,1.60
2008,12,16,06,12,1.60
2008,12,16,06,13,1.60
2008,12,16,06,14,1.60
2008,12,16,06,15,3.20
2008,12,16,06,16,3.20
2008,12,16,06,17,3.20
2008,12,16,06,18,3.20
2008,12,16,06,19,1.60
2008,12,16,06,20,1.60
2008,12,16,06,21,1.60
2008,12,16,06,22,1.60
2008,12,16,06,23,3.20
2008,12,16,06,24,3.20
2008,12,16,06,25,3.20
2008,12,16,06,26,3.20
2008,12,16,06,27,6.40
2008,12,16,06,28,1.60
2008,12,16,06,29,1.60
2008,12,16,06,30,1.60
2008,12,16,06,31,1.60
2008,12,16,06,32,1.60
2008,12,16,06,33,0.00
2008,12,16,06,34,0.00
2008,12,16,06,35,0.00
2008,12,16,06,36,0.00
2008,12,16,06,37,0.00
2008,12,16,06,38,0.00
2008,12,16,06,39,0.00
2008,12,16,06,40,0.00
2008,12,16,06,41,0.00
2008,12,16,06,42,0.00
2008,12,16,06,43,0.00
2008,12,16,06,44,0.00
2008,12,16,06,45,0.00
2008,12,16,06,46,0.00
2008,12,16,06,47,0.00
2008,12,16,06,48,0.00
2008,12,16,06,49,0.00
2008,12,16,06,50,0.00
2008,12,16,06,51,0.00
2008,12,16,06,52,0.00
2008,12,16,06,53,0.00
2008,12,16,06,54,0.00
2008,12,16,06,55,0.00
2008,12,16,06,56,0.00
2008,12,16,06,57,0.00
2008,12,16,06,58,0.00
2008,12,16,06,59,0.00
2008,12,16,07,00,0.00
2008,12,16,07,01,0.00
2008,12,16,07,02,0.00
2008,12,16,07,03,0.00
2008,12,16,07,04,0.00
2008,12,16,07,05,0.00
2008,12,16,07,06,0.00
2008,12,16,07,07,0.00
2008,12,16,07,08,0.00
2008,12,16,07,09,0.00
2008,12,16,07,10,0.00
2008,12,16,07,11,0.00
2008,12,16,07,12,0.00
2008,12,16,07,13,0.00
2008,12,16,07,14,0.00
2008,12,16,07,15,0.00
2008,12,16,07,16,0.00
2008,12,16,07,17,0.00
2008,12,16,07,18,1.60
2008,12,16,07,19,3.20
2008,12,16,07,20,1.60
2008,12,16,07,21,1.60
2008,12,16,07,22,1.60
2008,12,16,07,23,0.00
2008,12,16,07,24,0.00
2008,12,16,07,25,0.00
2008,12,16,07,26,0.00
2008,12,16,07,27,0.00
2008,12,16,07,28,0.00
2008,12,16,07,29,0.00
2008,12,16,07,30,0.00
2008,12,16,07,31,0.00
2008,12,16,07,32,0.00
2008,12,16,07,33,0.00
2008,12,16,07,34,0.00
2008,12,16,07,35,1.60
2008,12,16,07,36,1.60
2008,12,16,07,37,1.60
2008,12,16,07,38,0.00
2008,12,16,07,39,0.00
2008,12,16,07,40,0.00
2008,12,16,07,41,0.00
2008,12,16,07,42,0.00
2008,12,16,07,43,0.00
2008,12,16,07,44,0.00
2008,12,16,07,45,0.00
2008,12,16,07,46,0.00
2008,12,16,07,47,0.00
2008,12,16,07,48,0.00
2008,12,16,07,49,1.60
2008,12,16,07,50,0.00
2008,12,16,07,51,0.00
2008,12,16,07,52,0.00
2008,12,16,07,53,0.00
2008,12,16,07,54,0.00
2008,12,16,07,55,0.00
2008,12,16,07,56,0.00
2008,12,16,07,57,0.00
2008,12,16,07,58,0.00
2008,12,16,07,59,0.00
2008,12,16,08,00,0.00
2008,12,16,08,01,0.00
2008,12,16,08,02,0.00
2008,12,16,08,03,0.00
2008,12,16,08,04,0.00
2008,12,16,08,05,0.00
2008,12,16,08,06,0.00
2008,12,16,08,07,0.00
2008,12,16,08,08,0.00
2008,12,16,08,09,0.00
2008,12,16,08,10,0.00
2008,12,16,08,11,0.00
2008,12,16,08,12,0.00
2008,12,16,08,13,0.00
2008,12,16,08,14,0.00
2008,12,16,08,15,0.00
2008,12,16,08,16,0.00
2008,12,16,08,17,0.00
2008,12,16,08,18,0.00
2008,12,16,08,19,0.00
2008,12,16,08,20,0.00
2008,12,16,08,21,0.00
2008,12,16,08,22,0.00
2008,12,16,08,23,0.00
2008,12,16,08,24,0.00
2008,12,16,08,25,0.00
2008,12,16,08,26,0.00
2008,12,16,08,27,0.00
2008,12,16,08,28,0.00
2008,12,16,08,29,0.00
2008,12,16,08,30,0.00
2008,12,16,08,31,0.00
2008,12,16,08,32,0.00
2008,12,16,08,33,0.00
2008,12,16,08,34,0.00
2008,12,16,08,35,0.00
2008,12,16,08,36,0.00
2008,12,16,08,37,0.00
2008,12,16,08,38,0.00
2008,12,16,08,39,3.20
2008,12,16,08,40,3.20
2008,12,16,08,41,1.60
2008,12,16,08,42,3.20
2008,12,16,08,43,1.60
2008,12,16,08,44,1.60
2008,12,16,08,45,0.00
2008,12,16,08,46,1.60
2008,12,16,08,47,1.60
2008,12,16,08,48,0.00
2008,12,16,08,49,1.60
2008,12,16,08,50,0.00
2008,12,16,08,51,0.00
2008,12,16,08,52,0.00
2008,12,16,08,53,0.00
2008,12,16,08,54,0.00
2008,12,16,08,55,1.60
2008,12,16,08,56,3.20
2008,12,16,08,57,3.20
2008,12,16,08,58,3.20
2008,12,16,08,59,3.20
2008,12,16,09,00,3.20
2008,12,16,09,01,4.80
2008,12,16,09,02,3.20
2008,12,16,09,03,3.20
2008,12,16,09,04,3.20
2008,12,16,09,05,1.60
2008,12,16,09,06,1.60
2008,12,16,09,07,0.00
2008,12,16,09,08,0.00
2008,12,16,09,09,0.00
2008,12,16,09,10,0.00
2008,12,16,09,11,0.00
2008,12,16,09,12,0.00
2008,12,16,09,13,0.00
2008,12,16,09,14,0.00
2008,12,16,09,15,0.00
2008,12,16,09,16,0.00
2008,12,16,09,17,0.00
2008,12,16,09,18,0.00
2008,12,16,09,19,0.00
2008,12,16,09,20,0.00
2008,12,16,09,21,0.00
2008,12,16,09,22,0.00
2008,12,16,09,23,0.00
2008,12,16,09,24,0.00
2008,12,16,09,25,0.00
2008,12,16,09,26,0.00
2008,12,16,09,27,0.00
2008,12,16,09,28,0.00
2008,12,16,09,29,0.00
2008,12,16,09,30,0.00
2008,12,16,09,31,0.00
2008,12,16,09,32,0.00
2008,12,16,09,33,0.00
2008,12,16,09,34,0.00
2008,12,16,09,35,0.00
2008,12,16,09,36,0.00
2008,12,16,09,37,0.00
2008,12,16,09,38,0.00
2008,12,16,09,39,0.00
2008,12,16,09,40,0.00
2008,12,16,09,41,0.00
2008,12,16,09,42,0.00
2008,12,16,09,43,0.00
2008,12,16,09,44,0.00
2008,12,16,09,45,0.00
2008,12,16,09,46,0.00
2008,12,16,09,47,1.60
2008,12,16,09,48,1.60
2008,12,16,09,49,0.00
2008,12,16,09,50,0.00
2008,12,16,09,51,0.00
2008,12,16,09,52,0.00
2008,12,16,09,53,0.00
2008,12,16,09,54,0.00
2008,12,16,09,55,0.00
2008,12,16,09,56,0.00
2008,12,16,09,57,1.60
2008,12,16,09,58,1.60
2008,12,16,09,59,0.00
2008,12,16,10,00,0.00
2008,12,16,10,01,0.00
2008,12,16,10,02,0.00
2008,12,16,10,03,0.00
2008,12,16,10,04,0.00
2008,12,16,10,05,0.00
2008,12,16,10,06,0.00
2008,12,16,10,07,0.00
2008,12,16,10,08,0.00
2008,12,16,10,09,0.00
2008,12,16,10,10,0.00
2008,12,16,10,11,0.00
2008,12,16,10,12,0.00
2008,12,16,10,13,0.00
2008,12,16,10,14,0.00
2008,12,16,10,15,0.00
2008,12,16,10,16,0.00
2008,12,16,10,17,0.00
2008,12,16,10,18,0.00
2008,12,16,10,19,0.00
2008,12,16,10,20,0.00
2008,12,16,10,21,0.00
2008,12,16,10,22,0.00
2008,12,16,10,23,0.00
2008,12,16,10,24,0.00
2008,12,16,10,25,0.00
2008,12,16,10,26,0.00
2008,12,16,10,27,0.00
2008,12,16,10,28,0.00
2008,12,16,10,29,0.00
2008,12,16,10,30,0.00
2008,12,16,10,31,0.00
2008,12,16,10,32,0.00
2008,12,16,10,33,0.00
2008,12,16,10,34,0.00
2008,12,16,10,35,0.00
2008,12,16,10,36,1.60
2008,12,16,10,37,3.20
2008,12,16,10,38,4.80
2008,12,16,10,39,4.80
2008,12,16,10,40,3.20
2008,12,16,10,41,3.20
2008,12,16,10,42,1.60
2008,12,16,10,43,1.60
2008,12,16,10,44,0.00
2008,12,16,10,45,1.60
2008,12,16,10,46,0.00
2008,12,16,10,47,0.00
2008,12,16,10,48,0.00
2008,12,16,10,49,0.00
2008,12,16,10,50,0.00
2008,12,16,10,51,1.60
2008,12,16,10,52,1.60
2008,12,16,10,53,1.60
2008,12,16,10,54,1.60
2008,12,16,10,55,0.00
2008,12,16,10,56,1.60
2008,12,16,10,57,3.20
2008,12,16,10,58,4.80
2008,12,16,10,59,3.20
2008,12,16,11,00,3.20
2008,12,16,11,01,3.20
2008,12,16,11,02,3.20
2008,12,16,11,03,3.20
2008,12,16,11,04,3.20
2008,12,16,11,05,4.80
2008,12,16,11,06,3.20
2008,12,16,11,07,3.20
2008,12,16,11,08,3.20
2008,12,16,11,09,0.00
2008,12,16,11,10,1.60
2008,12,16,11,11,3.20
2008,12,16,11,12,4.80
2008,12,16,11,13,3.20
2008,12,16,11,14,3.20
2008,12,16,11,15,1.60
2008,12,16,11,16,0.00
2008,12,16,11,17,0.00
2008,12,16,11,18,0.00
2008,12,16,11,19,0.00
2008,12,16,11,20,3.20
2008,12,16,11,21,3.20
2008,12,16,11,22,3.20
2008,12,16,11,23,3.20
2008,12,16,11,24,1.60
2008,12,16,11,25,1.60
2008,12,16,11,26,0.00
2008,12,16,11,27,0.00
2008,12,16,11,28,0.00
2008,12,16,11,29,0.00
2008,12,16,11,30,0.00
2008,12,16,11,31,1.60
2008,12,16,11,32,1.60
2008,12,16,11,33,3.20
2008,12,16,11,34,3.20
2008,12,16,11,35,4.80
2008,12,16,11,36,3.20
2008,12,16,11,37,4.80
2008,12,16,11,38,3.20
2008,12,16,11,39,1.60
2008,12,16,11,40,1.60
2008,12,16,11,41,0.00
2008,12,16,11,42,1.60
2008,12,16,11,43,3.20
2008,12,16,11,44,3.20
2008,12,16,11,45,3.20
2008,12,16,11,46,1.60
2008,12,16,11,47,1.60
2008,12,16,11,48,1.60
2008,12,16,11,49,3.20
2008,12,16,11,50,1.60
2008,12,16,11,51,3.20
2008,12,16,11,52,3.20
2008,12,16,11,53,3.20
2008,12,16,11,54,1.60
2008,12,16,11,55,1.60
2008,12,16,11,56,3.20
2008,12,16,11,57,0.00
2008,12,16,11,58,1.60
2008,12,16,11,59,1.60
2008,12,16,12,00,3.20
2008,12,16,12,01,3.20
2008,12,16,12,02,3.20
2008,12,16,12,03,4.80
2008,12,16,12,04,4.80
2008,12,16,12,05,3.20
2008,12,16,12,06,4.80
2008,12,16,12,07,3.20
2008,12,16,12,08,3.20
2008,12,16,12,09,3.20
2008,12,16,12,10,3.20
2008,12,16,12,11,4.80
2008,12,16,12,12,4.80
2008,12,16,12,13,4.80
2008,12,16,12,14,3.20
2008,12,16,12,15,3.20
2008,12,16,12,16,1.60
2008,12,16,12,17,0.00
2008,12,16,12,18,0.00
2008,12,16,12,19,0.00
2008,12,16,12,20,3.20
2008,12,16,12,21,1.60
2008,12,16,12,22,0.00
2008,12,16,12,23,0.00
2008,12,16,12,24,0.00
2008,12,16,12,25,0.00
2008,12,16,12,26,0.00
2008,12,16,12,27,3.20
2008,12,16,12,28,0.00
2008,12,16,12,29,0.00
2008,12,16,12,30,0.00
2008,12,16,12,31,1.60
2008,12,16,12,32,3.20
2008,12,16,12,33,1.60
2008,12,16,12,34,6.40
2008,12,16,12,35,4.80
2008,12,16,12,36,6.40
2008,12,16,12,37,6.40
2008,12,16,12,38,8.10
2008,12,16,12,39,8.10
2008,12,16,12,40,4.80
2008,12,16,12,41,4.80
2008,12,16,12,42,1.60
2008,12,16,12,43,3.20
2008,12,16,12,44,4.80
2008,12,16,12,45,3.20
2008,12,16,12,46,6.40
2008,12,16,12,47,4.80
2008,12,16,12,48,4.80
2008,12,16,12,49,4.80
2008,12,16,12,50,8.10
2008,12,16,12,51,6.40
2008,12,16,12,52,8.10
2008,12,16,12,53,6.40
2008,12,16,12,54,6.40
2008,12,16,12,55,8.10
2008,12,16,12,56,8.10
2008,12,16,12,57,6.40
2008,12,16,12,58,3.20
2008,12,16,12,59,9.60
2008,12,16,13,00,8.10
2008,12,16,13,01,8.10
2008,12,16,13,02,8.10
2008,12,16,13,03,8.10
2008,12,16,13,04,6.40
2008,12,16,13,05,4.80
2008,12,16,13,06,8.10
2008,12,16,13,07,4.80
2008,12,16,13,08,3.20
2008,12,16,13,09,1.60
2008,12,16,13,10,6.40
2008,12,16,13,11,6.40
2008,12,16,13,12,3.20
2008,12,16,13,13,4.80
2008,12,16,13,14,6.40
2008,12,16,13,15,4.80
2008,12,16,13,16,6.40
2008,12,16,13,17,1.60
2008,12,16,13,18,6.40
2008,12,16,13,19,1.60
2008,12,16,13,20,4.80
2008,12,16,13,21,4.80
2008,12,16,13,22,6.40
2008,12,16,13,23,1.60
2008,12,16,13,24,0.00
2008,12,16,13,25,1.60
2008,12,16,13,26,9.60
2008,12,16,13,27,11.30
2008,12,16,13,28,8.10
2008,12,16,13,29,6.40
2008,12,16,13,30,4.80
2008,12,16,13,31,3.20
2008,12,16,13,32,6.40
2008,12,16,13,33,8.10
2008,12,16,13,34,3.20
2008,12,16,13,35,4.80
2008,12,16,13,36,9.60
2008,12,16,13,37,8.10
2008,12,16,13,38,9.60
2008,12,16,13,39,9.60
2008,12,16,13,40,6.40
2008,12,16,13,41,6.40
2008,12,16,13,42,4.80
2008,12,16,13,43,3.20
2008,12,16,13,44,8.10
2008,12,16,13,45,9.60
2008,12,16,13,46,6.40
2008,12,16,13,47,11.30
2008,12,16,13,48,8.10
2008,12,16,13,49,9.60
2008,12,16,13,50,8.10
2008,12,16,13,51,9.60
2008,12,16,13,52,11.30
2008,12,16,13,53,9.60
2008,12,16,13,54,6.40
2008,12,16,13,55,8.10
2008,12,16,13,56,8.10
2008,12,16,13,57,14.50
2008,12,16,13,58,8.10
2008,12,16,13,59,9.60
2008,12,16,14,00,8.10
2008,12,16,14,01,3.20
2008,12,16,14,02,14.50
2008,12,16,14,03,6.40
2008,12,16,14,04,4.80
2008,12,16,14,05,11.30
2008,12,16,14,06,9.60
2008,12,16,14,07,6.40
2008,12,16,14,08,4.80
2008,12,16,14,09,9.60
2008,12,16,14,10,6.40
2008,12,16,14,11,8.10
2008,12,16,14,12,8.10
2008,12,16,14,13,3.20
2008,12,16,14,14,3.20
2008,12,16,14,15,6.40
2008,12,16,14,16,4.80
2008,12,16,14,17,6.40
2008,12,16,14,18,11.30
2008,12,16,14,19,8.10
2008,12,16,14,20,6.40
2008,12,16,14,21,14.50
2008,12,16,14,22,8.10
2008,12,16,14,23,6.40
2008,12,16,14,24,6.40
2008,12,16,14,25,1.60
2008,12,16,14,26,1.60
2008,12,16,14,27,8.10
2008,12,16,14,28,8.10
2008,12,16,14,29,6.40
2008,12,16,14,30,8.10
2008,12,16,14,31,4.80
2008,12,16,14,32,3.20
2008,12,16,14,33,4.80
2008,12,16,14,34,8.10
2008,12,16,14,35,4.80
2008,12,16,14,36,9.60
2008,12,16,14,37,8.10
2008,12,16,14,38,6.40
2008,12,16,14,39,12.90
2008,12,16,14,40,11.30
2008,12,16,14,41,9.60
2008,12,16,14,42,9.60
2008,12,16,14,43,9.60
2008,12,16,14,44,8.10
2008,12,16,14,45,8.10
2008,12,16,14,46,4.80
2008,12,16,14,47,4.80
2008,12,16,14,48,4.80
2008,12,16,14,49,3.20
2008,12,16,14,50,3.20
2008,12,16,14,51,1.60
2008,12,16,14,52,0.00
2008,12,16,14,53,3.20
2008,12,16,14,54,3.20
2008,12,16,14,55,4.80
2008,12,16,14,56,3.20
2008,12,16,14,57,3.20
2008,12,16,14,58,4.80
2008,12,16,14,59,1.60
2008,12,16,15,00,6.40
2008,12,16,15,01,4.80
2008,12,16,15,02,4.80
2008,12,16,15,03,3.20
2008,12,16,15,04,6.40
2008,12,16,15,05,6.40
2008,12,16,15,06,4.80
2008,12,16,15,07,9.60
2008,12,16,15,08,6.40
2008,12,16,15,09,3.20
2008,12,16,15,10,4.80
2008,12,16,15,11,4.80
2008,12,16,15,12,4.80
2008,12,16,15,13,11.30
2008,12,16,15,14,8.10
2008,12,16,15,15,4.80
2008,12,16,15,16,1.60
2008,12,16,15,17,4.80
2008,12,16,15,18,3.20
2008,12,16,15,19,4.80
2008,12,16,15,20,4.80
2008,12,16,15,21,6.40
2008,12,16,15,22,4.80
2008,12,16,15,23,6.40
2008,12,16,15,24,8.10
2008,12,16,15,25,3.20
2008,12,16,15,26,9.60
2008,12,16,15,27,6.40
2008,12,16,15,28,6.40
2008,12,16,15,29,1.60
2008,12,16,15,30,9.60
2008,12,16,15,31,4.80
2008,12,16,15,32,4.80
2008,12,16,15,33,4.80
2008,12,16,15,34,8.10
2008,12,16,15,35,6.40
2008,12,16,15,36,4.80
2008,12,16,15,37,6.40
2008,12,16,15,38,6.40
2008,12,16,15,39,4.80
2008,12,16,15,40,4.80
2008,12,16,15,41,4.80
2008,12,16,15,42,4.80
2008,12,16,15,43,3.20
2008,12,16,15,44,3.20
2008,12,16,15,45,3.20
2008,12,16,15,46,3.20
2008,12,16,15,47,3.20
2008,12,16,15,48,4.80
2008,12,16,15,49,1.60
2008,12,16,15,50,1.60
2008,12,16,15,51,3.20
2008,12,16,15,52,6.40
2008,12,16,15,53,3.20
2008,12,16,15,54,6.40
2008,12,16,15,55,3.20
2008,12,16,15,56,4.80
2008,12,16,15,57,3.20
2008,12,16,15,58,4.80
2008,12,16,15,59,3.20
2008,12,16,16,00,3.20
2008,12,16,16,01,0.00
2008,12,16,16,02,3.20
2008,12,16,16,03,4.80
2008,12,16,16,04,4.80
2008,12,16,16,05,3.20
2008,12,16,16,06,3.20
2008,12,16,16,07,1.60
2008,12,16,16,08,1.60
2008,12,16,16,09,0.00
2008,12,16,16,10,0.00
2008,12,16,16,11,3.20
2008,12,16,16,12,3.20
2008,12,16,16,13,0.00
2008,12,16,16,14,0.00
2008,12,16,16,15,0.00
2008,12,16,16,16,0.00
2008,12,16,16,17,0.00
2008,12,16,16,18,0.00
2008,12,16,16,19,0.00
2008,12,16,16,20,0.00
2008,12,16,16,21,0.00
2008,12,16,16,22,0.00
2008,12,16,16,23,1.60
2008,12,16,16,24,1.60
2008,12,16,16,25,0.00
2008,12,16,16,26,0.00
2008,12,16,16,27,0.00
2008,12,16,16,28,0.00
2008,12,16,16,29,0.00
2008,12,16,16,30,0.00
2008,12,16,16,31,0.00
2008,12,16,16,32,0.00
2008,12,16,16,33,0.00
2008,12,16,16,34,0.00
2008,12,16,16,35,0.00
2008,12,16,16,36,0.00
2008,12,16,16,37,0.00
2008,12,16,16,38,0.00
2008,12,16,16,39,0.00
2008,12,16,16,40,0.00
2008,12,16,16,41,0.00
2008,12,16,16,42,0.00
2008,12,16,16,43,0.00
2008,12,16,16,44,0.00
2008,12,16,16,45,0.00
2008,12,16,16,46,0.00
2008,12,16,16,47,0.00
2008,12,16,16,48,0.00
2008,12,16,16,49,1.60
2008,12,16,16,50,1.60
2008,12,16,16,51,0.00
2008,12,16,16,52,0.00
2008,12,16,16,53,1.60
2008,12,16,16,54,3.20
2008,12,16,16,55,1.60
2008,12,16,16,56,0.00
2008,12,16,16,57,0.00
2008,12,16,16,58,0.00
2008,12,16,16,59,0.00
2008,12,16,17,00,0.00
2008,12,16,17,01,0.00
2008,12,16,17,02,0.00
2008,12,16,17,03,0.00
2008,12,16,17,04,0.00
2008,12,16,17,05,0.00
2008,12,16,17,06,0.00
2008,12,16,17,07,0.00
2008,12,16,17,08,0.00
2008,12,16,17,09,0.00
2008,12,16,17,10,0.00
2008,12,16,17,11,0.00
2008,12,16,17,12,0.00
2008,12,16,17,13,0.00
2008,12,16,17,14,0.00
2008,12,16,17,15,0.00
2008,12,16,17,16,0.00
2008,12,16,17,17,0.00
2008,12,16,17,18,0.00
2008,12,16,17,19,0.00
2008,12,16,17,20,0.00
2008,12,16,17,21,0.00
2008,12,16,17,22,0.00
2008,12,16,17,23,0.00
2008,12,16,17,24,0.00
2008,12,16,17,25,0.00
2008,12,16,17,26,0.00
2008,12,16,17,27,0.00
2008,12,16,17,28,0.00
2008,12,16,17,29,0.00
2008,12,16,17,30,0.00
2008,12,16,17,31,0.00
2008,12,16,17,32,0.00
2008,12,16,17,33,0.00
2008,12,16,17,34,0.00
2008,12,16,17,35,0.00
2008,12,16,17,36,0.00
2008,12,16,17,37,0.00
2008,12,16,17,38,0.00
2008,12,16,17,39,0.00
2008,12,16,17,40,0.00
2008,12,16,17,41,0.00
2008,12,16,17,42,0.00
2008,12,16,17,43,0.00
2008,12,16,17,44,0.00
2008,12,16,17,45,0.00
2008,12,16,17,46,0.00
2008,12,16,17,47,0.00
2008,12,16,17,48,1.60
2008,12,16,17,49,0.00
2008,12,16,17,50,0.00
2008,12,16,17,51,0.00
2008,12,16,17,52,0.00
2008,12,16,17,53,0.00
2008,12,16,17,54,0.00
2008,12,16,17,55,0.00
2008,12,16,17,56,0.00
2008,12,16,17,57,0.00
2008,12,16,17,58,0.00
2008,12,16,17,59,0.00
2008,12,16,18,00,3.20
2008,12,16,18,01,3.20
2008,12,16,18,02,3.20
2008,12,16,18,03,1.60
2008,12,16,18,04,1.60
2008,12,16,18,05,0.00